sat.trackr.live / text

‹ back to catalog

STARLINK-37385

NORAD 69175 · 2026-111AD

PAYLOAD ACTIVE UNKNOWN

§ Identity

Operator
Country
US
Launch date
2026-05-21
Launch site
AFETR
Launch vehicle
Mass (kg)
RCS (m²)

Purposes: comms

External: N2YO · Heavens-Above · Gunter

§ Orbital elements

Epoch: 2026-09-20T04:26:34.615104Z

Period
93.85 min
Inclination
53.1592°
Eccentricity
0.0000955
Mean motion
15.34388276 rev/d
Perigee alt
462.1 km
Apogee alt
463.4 km
Semi-major
6,840.9 km
B*
6.3338e-4
RAAN
66.9818°
Arg perigee
235.9156°
Mean anomaly
124.1756°
Rev number
1,885

§ Raw data

STARLINK-373851 69175U 26111AD  26263.18512286  .00021076  00000+0  63338-3 0  99922 69175  53.1592  66.9818 0000955 235.9156 124.1756 15.34388276 18858

JSON: /api/v1/satellites/69175 · /tle

For live sub-satellite position, see the globe view (requires WebGL).

§ Visibility from observer

Set your observer location to see the next 7 days of passes ≥ 10°. The values pass through the URL so the page stays shareable.

No JS? Fill the form by hand. The geolocation button needs JavaScript.